| time (UTC) | temp C | wind direction | speed KPH | gust KPH | rain 1hr cm | rain 24hr cm | rain mn cm | humidity % | barometer mb |
| 20260906100004 | 21 | 206 | 6.4 | 16.1 | 0.00 | 0.00 | 0.00 | 70 | 1020.7 |
| 20260906095004 | 21 | 185 | 6.4 | 20.9 | 0.00 | 0.00 | 0.00 | 71 | 1020.9 |
| 20260906094003 | 21 | 218 | 6.4 | 20.9 | 0.00 | 0.00 | 0.00 | 71 | 1021.1 |
| 20260906093004 | 20 | 220 | 8.0 | 19.3 | 0.00 | 0.00 | 0.00 | 71 | 1021.2 |
| 20260906092004 | 20 | 190 | 6.4 | 27.4 | 0.00 | 0.00 | 0.00 | 73 | 1021.3 |
| 20260906091004 | 20 | 189 | 6.4 | 19.3 | 0.00 | 0.00 | 0.00 | 74 | 1021.3 |
| 20260906090005 | 20 | 201 | 6.4 | 16.1 | 0.00 | 0.00 | 0.00 | 75 | 1021.2 |
| 20260906085004 | 19 | 200 | 4.8 | 17.7 | 0.00 | 0.00 | 0.00 | 76 | 1021.2 |
| 20260906084004 | 19 | 204 | 4.8 | 19.3 | 0.00 | 0.00 | 0.00 | 76 | 1021.3 |
| 20260906083004 | 18 | 210 | 6.4 | 20.9 | 0.00 | 0.00 | 0.00 | 77 | 1021.3 |
| 20260906081004 | 18 | 199 | 4.8 | 14.5 | 0.00 | 0.00 | 0.00 | 80 | 1021.6 |
| 20260906075004 | 17 | 193 | 1.6 | 14.5 | 0.00 | 0.00 | 0.00 | 82 | 1021.8 |
| 20260906073003 | 16 | 242 | 0.0 | 8.0 | 0.00 | 0.00 | 0.00 | 82 | 1021.8 |
| 20260906072003 | 16 | 154 | 1.6 | 8.0 | 0.00 | 0.00 | 0.00 | 83 | 1021.9 |
| 20260906071005 | 16 | 177 | 0.0 | 8.0 | 0.00 | 0.00 | 0.00 | 83 | 1021.9 |
| 20260906070003 | 15 | 0 | 0.0 | 4.8 | 0.00 | 0.00 | 0.00 | 84 | 1022.0 |
| 20260906064004 | 14 | 0 | 0.0 | 0.0 | 0.00 | 0.00 | 0.00 | 88 | 1022.0 |
| 20260906062004 | 13 | 0 | 0.0 | 0.0 | 0.00 | 0.00 | 0.00 | 88 | 1022.0 |
| 20260906060004 | 13 | 0 | 0.0 | 0.0 | 0.00 | 0.00 | 0.00 | 88 | 1022.2 |
| 20260906055003 | 13 | 0 | 0.0 | 0.0 | 0.00 | 0.00 | 0.00 | 87 | 1022.4 |
| 20260906054004 | 13 | 0 | 0.0 | 0.0 | 0.00 | 0.00 | 0.00 | 87 | 1022.5 |
| 20260906052004 | 13 | 0 | 0.0 | 0.0 | 0.00 | 0.00 | 0.00 | 86 | 1022.6 |
| 20260906051004 | 13 | 0 | 0.0 | 0.0 | 0.00 | 0.00 | 0.00 | 86 | 1022.6 |
| 20260906050004 | 13 | 0 | 0.0 | 0.0 | 0.00 | 0.00 | 0.00 | 86 | 1022.6 |
| 20260906045004 | 13 | 0 | 0.0 | 0.0 | 0.00 | 0.00 | 0.00 | 86 | 1022.4 |
| 20260906043004 | 13 | 0 | 0.0 | 0.0 | 0.00 | 0.00 | 0.00 | 85 | 1022.7 |
| 20260906042004 | 13 | 0 | 0.0 | 0.0 | 0.00 | 0.00 | 0.00 | 85 | 1022.7 |
| 20260906041004 | 13 | 0 | 0.0 | 0.0 | 0.00 | 0.00 | 0.00 | 84 | 1022.7 |
| 20260906040004 | 13 | 0 | 0.0 | 0.0 | 0.00 | 0.00 | 0.00 | 84 | 1022.8 |
| 20260906035004 | 13 | 0 | 0.0 | 0.0 | 0.00 | 0.00 | 0.00 | 83 | 1022.8 |
| 20260906034005 | 13 | 0 | 0.0 | 0.0 | 0.00 | 0.00 | 0.00 | 83 | 1022.9 |
| 20260906033005 | 13 | 0 | 0.0 | 0.0 | 0.00 | 0.00 | 0.00 | 82 | 1022.8 |
| 20260906032004 | 13 | 0 | 0.0 | 0.0 | 0.00 | 0.00 | 0.00 | 82 | 1022.8 |
| 20260906031004 | 13 | 0 | 0.0 | 0.0 | 0.00 | 0.00 | 0.00 | 82 | 1022.9 |
| 20260906024004 | 13 | 0 | 0.0 | 0.0 | 0.00 | 0.00 | 0.00 | 82 | 1023.2 |
| 20260906023004 | 13 | 0 | 0.0 | 0.0 | 0.00 | 0.00 | 0.00 | 82 | 1023.4 |
| 20260906022003 | 13 | 0 | 0.0 | 0.0 | 0.00 | 0.00 | 0.00 | 83 | 1023.5 |
| 20260906020004 | 13 | 0 | 0.0 | 0.0 | 0.00 | 0.00 | 0.00 | 83 | 1023.8 |
| 20260906015004 | 13 | 0 | 0.0 | 0.0 | 0.00 | 0.00 | 0.00 | 83 | 1023.8 |
| 20260906011004 | 13 | 0 | 0.0 | 0.0 | 0.00 | 0.00 | 0.00 | 83 | 1023.9 |
| 20260906010004 | 13 | 0 | 0.0 | 0.0 | 0.00 | 0.00 | 0.00 | 83 | 1023.9 |
| 20260906005004 | 13 | 0 | 0.0 | 0.0 | 0.00 | 0.00 | 0.00 | 83 | 1024.0 |
| 20260906003005 | 13 | 0 | 0.0 | 0.0 | 0.00 | 0.00 | 0.00 | 82 | 1024.2 |
| 20260906001004 | 14 | 0 | 0.0 | 0.0 | 0.00 | 0.00 | 0.00 | 80 | 1024.4 |
| 20260906000004 | 14 | 0 | 0.0 | 0.0 | 0.00 | 0.00 | 0.00 | 79 | 1024.3 |
| 20260905235003 | 14 | 0 | 0.0 | 0.0 | 0.00 | 0.00 | 0.00 | 79 | 1024.2 |
| 20260905233005 | 15 | 0 | 0.0 | 1.6 | 0.00 | 0.00 | 0.00 | 78 | 1024.4 |
| 20260905232004 | 14 | 0 | 0.0 | 0.0 | 0.00 | 0.00 | 0.00 | 79 | 1024.3 |
| 20260905230004 | 15 | 0 | 0.0 | 0.0 | 0.00 | 0.00 | 0.00 | 78 | 1024.4 |
| 20260905224004 | 15 | 0 | 0.0 | 0.0 | 0.00 | 0.00 | 0.00 | 77 | 1024.4 |
| 20260905222004 | 15 | 0 | 0.0 | 0.0 | 0.00 | 0.00 | 0.00 | 77 | 1024.3 |
| 20260905221004 | 15 | 0 | 0.0 | 3.2 | 0.00 | 0.00 | 0.00 | 76 | 1024.3 |
| 20260905220004 | 15 | 0 | 0.0 | 0.0 | 0.00 | 0.00 | 0.00 | 76 | 1024.3 |
| 20260905215004 | 15 | 0 | 0.0 | 1.6 | 0.00 | 0.00 | 0.00 | 76 | 1024.3 |
| 20260905214005 | 15 | 0 | 0.0 | 0.0 | 0.00 | 0.00 | 0.00 | 75 | 1024.1 |
| 20260905213004 | 15 | 0 | 0.0 | 1.6 | 0.00 | 0.00 | 0.00 | 74 | 1024.1 |
| 20260905212004 | 15 | 0 | 0.0 | 0.0 | 0.00 | 0.00 | 0.00 | 73 | 1024.0 |
| 20260905211004 | 16 | 0 | 0.0 | 0.0 | 0.00 | 0.00 | 0.00 | 73 | 1023.9 |
| 20260905210004 | 16 | 0 | 0.0 | 0.0 | 0.00 | 0.00 | 0.00 | 73 | 1024.0 |
| 20260905204004 | 16 | 0 | 0.0 | 0.0 | 0.00 | 0.00 | 0.00 | 73 | 1023.8 |
| 20260905203002 | 16 | 0 | 0.0 | 0.0 | 0.00 | 0.00 | 0.00 | 72 | 1023.8 |
| 20260905202003 | 16 | 0 | 0.0 | 0.0 | 0.00 | 0.00 | 0.00 | 72 | 1023.7 |
| 20260905201003 | 16 | 0 | 0.0 | 0.0 | 0.00 | 0.00 | 0.00 | 71 | 1023.8 |
| 20260905200003 | 16 | 0 | 0.0 | 0.0 | 0.00 | 0.00 | 0.00 | 70 | 1023.8 |
| 20260905195003 | 17 | 0 | 0.0 | 0.0 | 0.00 | 0.00 | 0.00 | 69 | 1023.8 |
| 20260905193003 | 17 | 0 | 0.0 | 0.0 | 0.00 | 0.00 | 0.00 | 67 | 1023.8 |
| 20260905192003 | 18 | 0 | 0.0 | 0.0 | 0.00 | 0.00 | 0.00 | 66 | 1023.7 |
| 20260905191002 | 18 | 0 | 0.0 | 0.0 | 0.00 | 0.00 | 0.00 | 64 | 1023.6 |
| 20260905190004 | 18 | 0 | 0.0 | 0.0 | 0.00 | 0.00 | 0.00 | 63 | 1023.5 |
| 20260905184003 | 20 | 0 | 0.0 | 0.0 | 0.00 | 0.00 | 0.00 | 60 | 1023.3 |
| 20260905183003 | 20 | 0 | 0.0 | 0.0 | 0.00 | 0.00 | 0.00 | 58 | 1023.2 |
| 20260905182004 | 20 | 0 | 0.0 | 3.2 | 0.00 | 0.00 | 0.00 | 56 | 1023.3 |
| 20260905181003 | 21 | 291 | 1.6 | 4.8 | 0.00 | 0.00 | 0.00 | 56 | 1023.4 |
| 20260905180003 | 21 | 291 | 1.6 | 4.8 | 0.00 | 0.00 | 0.00 | 54 | 1023.3 |
| 20260905174003 | 22 | 295 | 1.6 | 8.0 | 0.00 | 0.00 | 0.00 | 52 | 1023.2 |
| 20260905173003 | 22 | 297 | 1.6 | 8.0 | 0.00 | 0.00 | 0.00 | 51 | 1023.1 |
| 20260905172003 | 22 | 301 | 1.6 | 6.4 | 0.00 | 0.00 | 0.00 | 51 | 1023.2 |
| 20260905171003 | 22 | 299 | 3.2 | 8.0 | 0.00 | 0.00 | 0.00 | 51 | 1023.1 |
| 20260905170003 | 22 | 264 | 3.2 | 9.7 | 0.00 | 0.00 | 0.00 | 50 | 1023.1 |
| 20260905165004 | 22 | 319 | 4.8 | 12.9 | 0.00 | 0.00 | 0.00 | 52 | 1023.2 |
| 20260905164004 | 22 | 294 | 3.2 | 14.5 | 0.00 | 0.00 | 0.00 | 51 | 1023.2 |
| 20260905163003 | 22 | 305 | 3.2 | 11.3 | 0.00 | 0.00 | 0.00 | 52 | 1023.1 |
| 20260905162003 | 22 | 268 | 4.8 | 12.9 | 0.00 | 0.00 | 0.00 | 51 | 1023.1 |
| 20260905161003 | 22 | 278 | 4.8 | 11.3 | 0.00 | 0.00 | 0.00 | 52 | 1023.2 |
| 20260905160004 | 22 | 299 | 4.8 | 12.9 | 0.00 | 0.00 | 0.00 | 52 | 1023.2 |
| 20260905155003 | 22 | 325 | 4.8 | 14.5 | 0.00 | 0.00 | 0.00 | 52 | 1023.1 |
| 20260905154003 | 22 | 276 | 4.8 | 16.1 | 0.00 | 0.00 | 0.00 | 50 | 1023.2 |
| 20260905152003 | 22 | 264 | 4.8 | 16.1 | 0.00 | 0.00 | 0.00 | 52 | 1023.3 |
| 20260905151002 | 22 | 250 | 6.4 | 16.1 | 0.00 | 0.00 | 0.00 | 52 | 1023.3 |
| 20260905150003 | 22 | 281 | 6.4 | 17.7 | 0.00 | 0.00 | 0.00 | 54 | 1023.5 |
| 20260905145004 | 22 | 288 | 6.4 | 16.1 | 0.00 | 0.00 | 0.00 | 53 | 1023.4 |
| 20260905144004 | 21 | 283 | 6.4 | 19.3 | 0.00 | 0.00 | 0.00 | 55 | 1023.3 |
| 20260905142003 | 21 | 328 | 6.4 | 20.9 | 0.00 | 0.00 | 0.00 | 54 | 1023.2 |
| 20260905141003 | 22 | 279 | 6.4 | 16.1 | 0.00 | 0.00 | 0.00 | 55 | 1023.3 |
| 20260905135003 | 22 | 265 | 4.8 | 17.7 | 0.00 | 0.00 | 0.00 | 54 | 1023.3 |
| 20260905134003 | 21 | 273 | 6.4 | 12.9 | 0.00 | 0.00 | 0.00 | 56 | 1023.1 |
| 20260905133003 | 21 | 318 | 4.8 | 14.5 | 0.00 | 0.00 | 0.00 | 58 | 1023.2 |
| 20260905132003 | 21 | 324 | 4.8 | 14.5 | 0.00 | 0.00 | 0.00 | 59 | 1023.1 |
| 20260905130003 | 20 | 331 | 6.4 | 19.3 | 0.00 | 0.00 | 0.00 | 60 | 1023.1 |
| 20260905125004 | 20 | 340 | 4.8 | 14.5 | 0.00 | 0.00 | 0.00 | 59 | 1023.1 |
| 20260905124003 | 20 | 333 | 6.4 | 12.9 | 0.00 | 0.00 | 0.00 | 62 | 1023.0 |
| 20260905122003 | 19 | 323 | 6.4 | 12.9 | 0.00 | 0.00 | 0.00 | 63 | 1023.0 |
| 20260905121003 | 19 | 344 | 6.4 | 14.5 | 0.00 | 0.00 | 0.00 | 63 | 1023.0 |
| 20260905120003 | 19 | 329 | 9.7 | 17.7 | 0.00 | 0.00 | 0.00 | 62 | 1022.9 |
| 20260905114003 | 19 | 340 | 6.4 | 17.7 | 0.00 | 0.00 | 0.00 | 63 | 1023.0 |
| 20260905113004 | 19 | 337 | 4.8 | 16.1 | 0.00 | 0.00 | 0.00 | 63 | 1023.1 |
| 20260905112003 | 18 | 334 | 4.8 | 17.7 | 0.00 | 0.00 | 0.00 | 64 | 1023.2 |
| 20260905111003 | 18 | 337 | 8.0 | 16.1 | 0.00 | 0.00 | 0.00 | 65 | 1023.2 |
| 20260905110003 | 18 | 330 | 4.8 | 17.7 | 0.00 | 0.00 | 0.00 | 65 | 1023.1 |
| 20260905105003 | 18 | 288 | 4.8 | 14.5 | 0.00 | 0.00 | 0.00 | 66 | 1023.1 |
| 20260905104003 | 18 | 319 | 8.0 | 17.7 | 0.00 | 0.00 | 0.00 | 68 | 1023.0 |
| 20260905102003 | 18 | 307 | 4.8 | 16.1 | 0.00 | 0.00 | 0.00 | 67 | 1022.9 |
| 20260905101003 | 18 | 295 | 6.4 | 14.5 | 0.00 | 0.00 | 0.00 | 67 | 1022.9 |